Weather in Tsokto-Khangil

Russia / Zabaykalsky Krai     50°54′20″N   114°37′28″E
temp.,
°C
wind,
m/s
gust,
m/s
humid.,
%
clouds,
%
prec.,
mm/h
press.,
hPa
HPBL,
m
26 february, fri
fri2600:00−17s2293100 0.0 102721
03:00−16ese2295100 0.0 102668
06:00−17se41297100 0.0 1023339
09:00−17ese41297100 0.1 1022408
12:00−12se71192100 0.3 1019602
15:00−10se6891100 0.4 1016586
18:00−11ese6993100 0.2 1015486
21:00−13e5995100 0.5 1013337
27 february, sat
sat2700:00−14nne3596100 1.3 1011227
03:00−13nw6995100 3.5 1011354
06:00−15nw51489100 0.1 1014535
09:00−14wnw6158683 0.1 1018609
12:00−15wnw11177547 0.0 1020942
15:00−14nw11167347 0.0 10221195
18:00−16wnw7147398 0.0 10261223
21:00−21wnw5137759 0.0 1032276
28 february, sun
sun2800:00−23wnw510770 0.0 1035179
03:00−25wnw48800 0.0 1038130
06:00−27wnw35830 0.0 103976
09:00−27w33840 0.0 104142
12:00−19nw710680 0.0 10401009
15:00−17wnw710640 0.0 10381290
18:00−18wnw477527 0.0 1038174
21:00−24wnw127328 0.0 104120
1 march, mon
mon100:00−25wsw22710 0.0 104320
03:00−26wsw22710 0.0 104320
06:00−26w127831 0.0 104220
09:00−25wsw128163 0.0 104220
12:00−18wnw24752 0.0 1038342
15:00−14w255910 0.0 10341159
18:00−15ssw3593100 0.3 1032306
21:00−19ssw3387100 0.4 103340
2 march, tue
tue200:00−21ssw1195100 0.1 103220
03:00−23sw129777 0.1 103020
06:00−25ssw11910 0.0 102920
09:00−24sse128615 0.0 102820
12:00−17sse238067 0.0 1024302
15:00−15sse227972 0.0 1021405
18:00−16se239138 0.0 102044
21:00−20se229850 0.0 102120